This is the latest recevied weather packets stored in our database for station/object KC7KGF. If no packets are shown the sender has not sent any weather packets the latest 10 day(s).
| Time | Temp. | Humidity | Pressure | Rain* | Wind** | Luminosity | Snow |
|---|---|---|---|---|---|---|---|
| 1777660535 | 22.22° C | 17% | 1017.4 hPa | 0 mm | - | - | - |
| 1777658726 | 21.11° C | 18% | 1017.7 hPa | 0 mm | - | - | - |
| 1777656934 | 20.56° C | 19% | 1017.9 hPa | 0 mm | - | - | - |
| 1777655153 | 20.56° C | 21% | 1017.8 hPa | 0 mm | - | - | - |
| 1777653333 | 20° C | 24% | 1017.9 hPa | 0 mm | - | - | - |
| 1777651532 | 18.33° C | 26% | 1017.8 hPa | 0 mm | - | - | - |
| 1777649743 | 17.78° C | 29% | 1017.5 hPa | 0 mm | - | - | - |
| 1777647931 | 15.56° C | 37% | 1017.3 hPa | 0 mm | - | - | - |
| 1777646133 | 12.78° C | 46% | 1017.3 hPa | 0 mm | - | - | - |
| 1777644343 | 8.89° C | 54% | 1017.2 hPa | 0 mm | - | - | - |
| 1777642539 | 3.33° C | 70% | 1016.7 hPa | 0 mm | - | - | - |
| 1777640726 | 1.67° C | 70% | 1016.2 hPa | 0 mm | - | - | - |
| 1777638942 | 2.22° C | 67% | 1015.8 hPa | 0 mm | - | - | - |
| 1777637134 | 2.78° C | 67% | 1015.8 hPa | 0 mm | - | - | - |
| 1777635327 | 3.33° C | 62% | 1015.9 hPa | 0 mm | - | - | - |
| 1777633535 | 4.44° C | 59% | 1015.9 hPa | 0 mm | - | - | - |
| 1777631730 | 5° C | 55% | 1015.8 hPa | 0 mm | - | - | - |
| 1777629935 | 5.56° C | 53% | 1015.6 hPa | 0 mm | - | - | - |
| 1777628138 | 7.22° C | 47% | 1015.4 hPa | 0 mm | - | - | - |
| 1777626344 | 8.89° C | 43% | 1015.3 hPa | 0 mm | - | - | - |
| 1777624547 | 11.11° C | 39% | 1015.8 hPa | 0 mm | - | - | - |
| 1777622732 | 13.89° C | 32% | 1016.1 hPa | 0 mm | - | - | - |
| 1777620936 | 15° C | 29% | 1015.9 hPa | 0 mm | - | - | - |
| 1777619144 | 15° C | 29% | 1015.3 hPa | 0 mm | - | - | - |
| 1777617351 | 15.56° C | 25% | 1014.9 hPa | 0 mm | - | - | - |
* Rain latest hour (hover to see other rain measurements)
** Current wind speed in m/s (hover to see current wind gust speed)